Location: Middelsbur
(53.6609°N, 7.5020°E)
Time: 23:44:25
(UTC+00:00)

SPOT 1/Viking Rocket - Pass Details

Date: 06 July 2020
Orbit: 778 x 793 km, 98.5° (Epoch: 14 August)

Event Time Altitude Azimuth Distance (km) Brightness Sun altitude
Exits shadow 21:00:44 - 178° (S) 2,961 6.0 -6.8°
Reaches altitude 10° 21:02:21 10° 181° (S) 2,331 5.5 -7.0°
Maximum altitude 21:07:23 55° 259° (W) 944 4.2 -7.4°
Drops below altitude 10° 21:12:30 10° 338° (NNW) 2,357 7.7 -7.8°
Sets 21:14:53 0° 342° (NNW) 3,293 8.6 -8.0°
